TimeEEST,TemperatureF,Dew PointF,Humidity,Sea Level PressureIn,VisibilityMPH,Wind Direction,Wind SpeedMPH,Gust SpeedMPH,PrecipitationIn,Events,Conditions,WindDirDegrees,DateUTC
12:50 AM,75.2,48.2,38,29.89,6.2,ENE,3.5,-,N/A,,Scattered Clouds,70,2013-08-21 21:50:00
1:50 AM,80.6,51.8,37,29.86,6.2,East,10.4,-,N/A,,Scattered Clouds,80,2013-08-21 22:50:00
2:50 AM,78.8,51.8,39,29.86,6.2,ESE,5.8,-,N/A,,Scattered Clouds,110,2013-08-21 23:50:00
3:00 AM,79,52,29,29.88,6,ESE,5.8,,,,Scattered Clouds,110,2013-08-22 00:00:00
3:50 AM,73.4,51.8,47,29.86,6.2,East,6.9,-,N/A,,Scattered Clouds,100,2013-08-22 00:50:00
4:50 AM,77.0,50.0,39,29.86,-9999.0,ENE,8.1,-,N/A,,Clear,70,2013-08-22 01:50:00
5:50 AM,73.4,59.0,61,29.83,-9999.0,East,5.8,-,N/A,,Clear,80,2013-08-22 02:50:00
6:20 AM,73.4,59.0,61,29.83,6.2,ENE,6.9,-,N/A,,Scattered Clouds,70,2013-08-22 03:20:00
6:50 AM,73.4,59.0,61,29.86,6.2,ESE,4.6,-,N/A,,Scattered Clouds,110,2013-08-22 03:50:00
7:20 AM,73.4,60.8,65,29.86,6.2,NE,6.9,-,N/A,,Scattered Clouds,50,2013-08-22 04:20:00
7:50 AM,77.0,60.8,57,29.86,6.2,NE,5.8,-,N/A,,Partly Cloudy,50,2013-08-22 04:50:00
8:20 AM,80.6,57.2,45,29.86,6.2,ENE,5.8,-,N/A,,Partly Cloudy,70,2013-08-22 05:20:00
8:50 AM,82.4,55.4,39,29.86,6.2,NE,6.9,-,N/A,,Partly Cloudy,50,2013-08-22 05:50:00
9:20 AM,82.4,51.8,35,29.86,6.2,East,9.2,-,N/A,,Partly Cloudy,80,2013-08-22 06:20:00
9:50 AM,84.2,53.6,35,29.86,6.2,NE,6.9,-,N/A,,Partly Cloudy,40,2013-08-22 06:50:00
10:20 AM,84.2,53.6,35,29.86,6.2,East,6.9,-,N/A,,Partly Cloudy,80,2013-08-22 07:20:00
10:50 AM,86.0,53.6,33,29.86,6.2,East,4.6,-,N/A,,Partly Cloudy,90,2013-08-22 07:50:00
11:20 AM,89.6,50.0,26,29.86,6.2,Calm,Calm,-,N/A,,Partly Cloudy,0,2013-08-22 08:20:00
11:50 AM,89.6,46.4,22,29.86,6.2,Calm,Calm,-,N/A,,Partly Cloudy,0,2013-08-22 08:50:00
12:20 PM,89.6,46.4,22,29.86,6.2,Calm,Calm,-,N/A,,Partly Cloudy,0,2013-08-22 09:20:00
12:50 PM,91.4,46.4,21,29.86,6.2,Calm,Calm,-,N/A,,Partly Cloudy,0,2013-08-22 09:50:00
1:20 PM,91.4,44.6,20,29.86,6.2,Calm,Calm,-,N/A,,Partly Cloudy,0,2013-08-22 10:20:00
1:50 PM,91.4,42.8,18,29.86,6.2,Calm,Calm,-,N/A,,Partly Cloudy,0,2013-08-22 10:50:00
2:20 PM,93.2,42.8,17,29.83,6.2,Calm,Calm,-,N/A,,Partly Cloudy,0,2013-08-22 11:20:00
2:50 PM,93.2,42.8,17,29.83,6.2,Calm,Calm,-,N/A,,Partly Cloudy,0,2013-08-22 11:50:00
3:20 PM,91.4,53.6,28,29.83,6.2,Calm,Calm,-,N/A,,Partly Cloudy,0,2013-08-22 12:20:00
3:50 PM,87.8,59.0,38,29.83,6.2,NW,12.7,-,N/A,,Partly Cloudy,310,2013-08-22 12:50:00
4:20 PM,87.8,60.8,40,29.83,6.2,NW,12.7,-,N/A,,Partly Cloudy,310,2013-08-22 13:20:00
4:50 PM,86.0,62.6,45,29.83,6.2,NW,15.0,-,N/A,,Partly Cloudy,320,2013-08-22 13:50:00
5:20 PM,86.0,62.6,45,29.83,6.2,NW,16.1,-,N/A,,Partly Cloudy,320,2013-08-22 14:20:00
5:50 PM,86.0,66.2,51,29.83,6.2,NNW,12.7,-,N/A,,Partly Cloudy,330,2013-08-22 14:50:00
6:20 PM,84.2,68.0,58,29.83,6.2,NNW,12.7,-,N/A,,Partly Cloudy,330,2013-08-22 15:20:00
6:50 PM,84.2,64.4,51,29.83,6.2,NW,13.8,-,N/A,,Partly Cloudy,320,2013-08-22 15:50:00
7:20 PM,84.2,64.4,51,29.83,6.2,NW,11.5,-,N/A,,Scattered Clouds,310,2013-08-22 16:20:00
7:50 PM,82.4,66.2,58,29.83,6.2,NW,10.4,-,N/A,,Scattered Clouds,310,2013-08-22 16:50:00
8:20 PM,82.4,68.0,62,29.83,6.2,WNW,9.2,-,N/A,,Scattered Clouds,290,2013-08-22 17:20:00
8:50 PM,80.6,69.8,70,29.83,6.2,NW,8.1,-,N/A,,Scattered Clouds,310,2013-08-22 17:50:00
9:00 PM,81,69,60,29.85,6,NW,8.1,,,,Scattered Clouds,310,2013-08-22 18:00:00
9:50 PM,80.6,73.4,79,29.86,6.2,WNW,6.9,-,N/A,,Scattered Clouds,290,2013-08-22 18:50:00
10:50 PM,80.6,71.6,74,29.89,6.2,WSW,6.9,-,N/A,,Scattered Clouds,250,2013-08-22 19:50:00
11:50 PM,78.8,73.4,83,29.89,6.2,SW,5.8,-,N/A,,Partly Cloudy,230,2013-08-22 20:50:00